Regional Weather Roundup
Issued by NWS Little Rock, AR

Home | Current Version | Previous Version | Graphics & Text | Print | Product List | Glossary On
Versions: 1 2 3 4 5 6 7 8 9 10 11 12 13 14 15 16 17 18 19 20 21 22 23 24 25 26 27 28 29 30 31 32 33 34 35 36 37 38 39 40 41 42 43 44 45 46 47 48
000
ASUS44 KLZK 280105
RWRLZK

WEATHER ROUNDUP FOR ARKANSAS
NATIONAL WEATHER SERVICE LITTLE ROCK AR
700 PM CST FRI FEB 27 2015

NOTE: "FAIR" INDICATES FEW OR NO CLOUDS BELOW 12,000 FEET WITH NO
SIGNIFICANT WEATHER AND/OR OBSTRUCTIONS TO VISIBILITY.

ARZ001-003-010-029-280200-
NORTHWEST ARKANSAS

CITY           SKY/WX    TMP DP  RH WIND       PRES   REMARKS
FAYETTEVILLE   LGT SNOW  19  16  88 N3        30.48S FOG
FORT SMITH     LGT SNOW  23  17  78 NE7       30.53R WCI  15
HARRISON       LGT SNOW  17  14  88 E8        30.48F FOG     WCI   7
BENTONVILLE    CLOUDY    18  12  79 NE6       30.49R WCI   9
ROGERS         FLURRIES  17  14  88 NE6       30.49R WCI   9
SILOAM SPGS    CLOUDY    18  10  73 NE5       30.50R WCI  11
HIGHFILL       LGT SNOW  18  14  84 NE6       30.48S FOG     WCI  10
SPRINGDALE     CLOUDY    18  14  86 E7        30.49S FOG     WCI   8
$$

ARZ004-005-016-280200-
NORTH CENTRAL ARKANSAS

CITY           SKY/WX    TMP DP  RH WIND       PRES   REMARKS
BATESVILLE     CLOUDY    21  16  79 E7        30.59S WCI  13
FLIPPIN        PTCLDY    19  12  73 E3        30.54F
MTN HOME       LGT SNOW  18  15  88 E7        30.53F FOG     WCI   9
$$

ARZ040-041-280200-
WEST CENTRAL ARKANSAS

CITY           SKY/WX    TMP DP  RH WIND       PRES   REMARKS
MENA           CLOUDY    27  23  86 E7        30.45R WCI  19
MOUNT IDA      FLURRIES  24  17  74 VRB3      30.45S
$$

ARZ009-017-025-026-028-280200-
NORTHEAST ARKANSAS

CITY           SKY/WX    TMP DP  RH WIND       PRES   REMARKS
CORNING        CLOUDY    23  12  63 NE8       30.62S WCI  14
JONESBORO      CLOUDY    23  15  71 NE13      30.61R WCI  11
NEWPORT        FLURRIES  24  17  74 NE15      30.61S WCI  11
WALNUT RIDGE   CLOUDY    23  10  58 NE10      30.62S WCI  12
BLYTHEVILLE    CLOUDY    25  17  72 NE15      30.60F WCI  13
$$

ARZ022-023-033-042-044-280200-
CENTRAL ARKANSAS

CITY           SKY/WX    TMP DP  RH WIND       PRES   REMARKS
LITTLE ROCK    CLOUDY    28   7  41 E13G21    30.55S WCI  17
N LITTLE ROCK  CLOUDY    26  11  52 NE14G21   30.55S WCI  14
JACKSONVILLE   MOCLDY    26   7  43 NE10      30.54S WCI  16
SEARCY         CLOUDY    25  14  63 NE15      30.58F WCI  13
HOT SPRINGS    CLOUDY    28   8  43 E10       30.49F WCI  19
RUSSELLVILLE   FLURRIES  24  17  74 NE8       30.53S WCI  15
CLINTON        LGT SNOW  23  18  80 N3        30.57S
$$

ARZ036-280200-
EAST ARKANSAS

CITY           SKY/WX    TMP DP  RH WIND       PRES   REMARKS
WEST MEMPHIS   CLOUDY    26  19  74 NE13      30.56F WCI  15
$$

ARZ050-053-066-070-073-280200-
SOUTHWEST ARKANSAS

CITY           SKY/WX    TMP DP  RH WIND       PRES   REMARKS
ARKADELPHIA    FAIR      30  12  47 NE9       30.52S WCI  22
CAMDEN         MOCLDY    28  14  54 MISG      30.51S
TEXARKANA      CLOUDY    30  15  53 E8G17     30.45S WCI  22
EL DORADO      CLOUDY    30  18  60 NE14      30.49R WCI  19
DE QUEEN       LGT SNOW  27  21  78 NE7       30.46S WCI  19
$$

ARZ056-057-069-280200-
SOUTHEAST ARKANSAS

CITY           SKY/WX    TMP DP  RH WIND       PRES   REMARKS
PINE BLUFF     CLOUDY    27  15  61 NE14      30.54S WCI  16
STUTTGART      CLOUDY    27  12  54 NE17      30.54S WCI  14
MONTICELLO     CLOUDY    29  18  63 NE9       30.52R WCI  20

$$




USA.gov is the U.S. government's official web portal to all federal, state and local government web resources and services.